Regional Weather Roundup
Issued by NWS Cleveland, OH

Home | Current Version | Previous Version | Graphics & Text | Print | Product List | Glossary On
Versions: 1 2 3 4 5 6 7 8 9 10 11 12 13 14 15 16 17 18 19 20 21 22 23 24 25 26 27 28 29 30 31 32 33 34 35 36 37 38 39 40 41 42 43 44 45 46 47 48 49 50
889
ASUS41 KCLE 251612
RWRCLE
OHIO REGIONAL WEATHER ROUNDUP
NATIONAL WEATHER SERVICE WILMINGTON, OH
1200 PM EDT WED MAY 25 2016

NOTE: "FAIR" INDICATES FEW OR NO CLOUDS BELOW 12,000 FEET WITH NO
SIGNIFICANT WEATHER AND/OR OBSTRUCTIONS TO VISIBILITY.

OHZ001>008-015>018-024>027-034-035-043-044-251700-
   NORTHWEST OHIO

CITY           SKY/WX    TMP DP  RH WIND       PRES   REMARKS
DEFIANCE       FAIR      79  58  48 S12G22    30.09F
FINDLAY        FAIR      82  56  40 SW20G25   30.10F
TOLEDO EXPRESS FAIR      82  56  40 SW10      30.08F
TOLEDO EXEC    FAIR      83  55  38 SW15      30.09F
LIMA           PTSUNNY   73  61  65 S6        30.13F
$$

OHZ009>014-019>023-028>033-038-089-251700-
   NORTHEAST OHIO

CITY           SKY/WX    TMP DP  RH WIND       PRES   REMARKS
CLE-HOPKINS    FAIR      82  54  37 SW15      30.15S
CLE-LAKEFRONT  FAIR      78  57  48 NW5       30.12S
CUY CO. ARPT   MOSUNNY   81  57  44 NW14      30.15R
LORAIN-ELYRIA  FAIR      81  51  35 SW13      30.13S
ASHTABULA      FAIR      81  52  36 W7G17     30.14S
AKRON-CANTON   PTSUNNY   78  51  38 W10       30.17S
WOOSTER        FAIR      79  54  41 SW9       30.17S
MANSFIELD      PTSUNNY   80  55  42 S17       30.17R
YOUNGSTOWN     PTSUNNY   78  53  41 VRB6      30.17R
$$

OHZ042-051>053-060>062-070>072-077>081-251700-
  SOUTHWEST OHIO

CITY           SKY/WX    TMP DP  RH WIND       PRES   REMARKS
CINC-COVINGTON CLOUDY    73  58  59 S9        30.13F
CINC-LUNKEN    PTSUNNY   70  64  81 CALM      30.14F
HAMILTON       FAIR      73  61  65 E7        30.13F
DAYTON         CLOUDY    70  62  76 SE8       30.14F
WRIGHT-PAT AFB PTSUNNY   76  57  51 S5        30.13F
DAYTON GENERAL PTSUNNY   71  55  56 S13       30.14S
WILMINGTON     LGT RAIN  72  57  59 SW12      30.16R
$$

OHZ036-037-039>041-045>050-054>059-063>069-073>076-082>088-251700-
  CENTRAL AND SOUTHEAST OHIO

CITY           SKY/WX    TMP DP  RH WIND       PRES   REMARKS
COLUMBUS       FAIR      79  54  41 S12G18    30.16R
OSU AIRPORT    CLOUDY    79  56  45 SW10      30.15R
BOLTON FIELD   CLOUDY    79  57  47 SW13      30.16S
RICKENBACK AFB PTSUNNY   79  56  45 S12       30.15R
NEWARK         FAIR      82  52  35 S13       30.15S
MARION         FAIR      81  57  43 SW14G21   30.15S
LANCASTER      FAIR      80  54  40 SW9       30.16F
ZANESVILLE     PTSUNNY   80  50  34 SW8       30.17F
NEW PHILLY     FAIR      79  51  37 VRB5      30.17S
$$




USA.gov is the U.S. government's official web portal to all federal, state and local government web resources and services.